Погода в Плешаново

Россия / Оренбургская область     52°50′42″N   53°29′20″E
темп.,
°C
ветер,
м/с
пор.,
м/с
влажн.,
%
обл.,
%
осадки,
мм/ч
давл.,
гПа
погр.,
м
23 мая, пн
пн2323:00+6ю3790100 1.1 1001182
02:00+6в2488100 0.0 998163
05:00+6всв3794100 0.5 997363
08:00+6св3695100 1.3 996321
11:00+7ссв3493100 1.6 997294
14:00+8зсз1286100 0.1 1000344
17:00+11юз3372100 0.1 1001902
20:00+11юз117468 0.1 100246
24 мая, вт
вт2423:00+8ю228381 0.1 100316
02:00+8юв118388 0.1 100313
05:00+8ссз008699 0.1 100410
08:00+9с228894 0.0 1005241
11:00+12сз3370100 0.1 1006980
14:00+13ссз2160100 0.1 10061118
17:00+13ссз2160100 0.1 1007972
20:00+12св1176100 0.2 100719
25 мая, ср
ср2523:00+9с1180100 0.2 100810
02:00+8с2279100 0.0 100810
05:00+8ссз117397 0.0 100810
08:00+10зсз1263100 0.0 1008153
11:00+14зюз3452100 0.0 10081122
14:00+15з5651100 0.1 10081996
17:00+14зсз6657100 0.1 10091192
20:00+11сз567154 0.0 1010786
26 мая, чт
чт2623:00+6сз378112 0.0 1012168
02:00+5зсз358222 0.0 1012112
05:00+3зсз36875 0.0 1013115
08:00+7зсз46715 0.0 1014364
11:00+11з565612 0.0 10141494
14:00+13з564687 0.1 10142227
17:00+12зюз575092 0.1 10141665
20:00+11зюз486146 0.1 1014522
27 мая, пт
пт2723:00+7ююз3773100 0.1 1014113
02:00+9ююз7146583 0.0 1012493
05:00+9ююз81871100 0.2 1009631
08:00+10ююз9187394 0.3 1008640
11:00+12ююз91576100 0.4 1008935
14:00+12ю91686100 0.8 10071166
17:00+11ююз71291100 1.9 1006713
20:00+13ююз6108379 0.2 1005675